DELTA 1 DEB, 40758

Orbit data source: Space-Track

DELTA 1 DEB, 40758 is space debris in SSO originally from a launch on Thu, 29 Jul 1976 UTC launched from the Air Force Western Test Range (AFWTR). Debris objects in space refer to the collection of defunct objects orbiting the Earth. Examples of debris include non-operational satellites, rocket bodies, and fragments generated from explosions, collisions, or faulty payload assembly.

Loading next visibility...
Identifier
40758, 1976-077GB
Orbit
SSO
Country
Flag of USUS
Related business
Manufacturer
Unknown
Mission
Spacecraft
Bus & Motor
Unknown
Mass
Unknown
Launch date (UTC)
1976-07-29 (50 years ago)
Launch vehicle
Unknown
Launch site
Air Force Western Test Range (AFWTR)
Object type
Payload
Rocket body
Debris
Shape & HBR
Unknown shape, 0.1 m
Radar Cross Section
Small (<0.1 m²)

Expand to show TLE details & history
Last TLE update: 1 week ago

TLE from 1 week ago
0 DELTA 1 DEB
1 40758U 76077GB  26112.67687819  .00000010  00000-0  49766-3 0  9991
2 40758 102.5197  83.6812 0088072 202.8694 340.8228 12.25492782555302
Epoch: 2026-04-22T16:14Z
TLE epoch observation values (Epoch: 2026-04-22T16:14:42.275Z)
Latitude
-3.39925°
Longitude
168.51814°
Altitude
1,505.673 km
Speed
7.141 km/s
True Right ascension
17h 31m 43s
True Declination
-3° 22' 51"
Sunlit
Object was in full shadow at epoch
Visualization orbit readout
Latitude
Unknown
Longitude
Unknown
Altitude
Unknown
Speed
Unknown
Apparent Right ascension
Unknown
Apparent Declination
Unknown
Sunlit
N/A
Visualization observer readout
Local Sidereal Time
21:13:28
Azimuth
Unknown
Elevation
Unknown
Doppler factor
Unknown
Orbital elements
Apogee altitude
1,636.3 km
Perigee altitude
1,496.363 km
Semi-major axis
7,944.468 km
Eccentricity
0.00881
Inclination
102.5197°
RAAN
83.6812°
Arg. of periapsis
202.8694°
True anomaly
340.4878°
Mean anomaly
340.8228°
Eccentric anomaly
340.65565°
Mean motion
3.06511 °/min
Orbital period
117.45 mins
BSTAR
0.00049766
Loading maneuver chart data...
Computing Atmospheric mass density...
Loading historical data...
Loading historical data...
Loading historical data...
Loading historical data...
Loading historical data...
Loading historical data...
Loading historical data...

Documentation

Showing up to 5 results
|